Location: Miami, Florida
(25.6830°N, 80.1700°W)
Time: 02:46:21
(UTC-04:00)

Vanguard 3 - All Passes

Search period start: 17 January 2018 00:00
Search period end: 27 January 2018 00:00
Orbit: 508 x 3264 km, 33.4° (Epoch: 15 January)

Date Brightness Start Highest point End Pass type
(mag) Time Alt. Az. Time Alt. Az. Time Alt. Az.
17 Jan - 02:06:13 10° WSW 02:20:40 89° NNW 02:41:02 10° ENE visible
17 Jan - 04:21:05 10° W 04:39:20 68° N 04:58:34 10° ENE visible
17 Jan - 06:38:22 10° WNW 06:58:46 76° NNE 07:14:28 10° ESE visible
17 Jan - 08:56:41 10° WNW 09:15:20 65° SW 09:27:07 10° SE daylight
17 Jan - 11:18:27 10° W 11:27:45 20° SW 11:34:37 10° S daylight
17 Jan - 22:43:53 10° S 22:51:34 24° SE 23:02:32 10° E visible
18 Jan - 00:52:17 10° SW 01:04:21 71° SSE 01:23:25 10° ENE visible
18 Jan - 03:05:21 10° W 03:21:21 73° NNW 03:41:40 10° ENE visible
18 Jan - 05:21:27 10° WNW 05:40:54 69° N 05:58:52 10° E visible
18 Jan - 07:38:59 10° WNW 07:59:15 85° SSW 08:13:25 10° ESE visible
18 Jan - 09:58:18 10° WNW 10:13:41 38° SW 10:23:49 10° SSE daylight
18 Jan - 23:39:24 10° SSW 23:49:13 48° SE 00:05:14 10° ENE night (unlit)
19 Jan - 01:50:32 10° WSW 02:04:05 84° NNW 02:24:15 10° ENE visible
19 Jan - 04:05:11 10° W 04:22:43 68° N 04:42:22 10° E visible
19 Jan - 06:21:50 10° WNW 06:42:06 80° NNE 06:58:40 10° ESE visible
19 Jan - 08:39:48 10° WNW 08:58:40 59° SW 09:11:17 10° SE daylight
19 Jan - 11:02:33 10° W 11:11:17 17° SW 11:18:05 10° SSW daylight
19 Jan - 22:27:47 10° S 22:35:10 27° SE 22:46:11 10° E visible
20 Jan - 00:36:39 10° SW 00:47:51 78° SSE 01:06:28 10° ENE visible
20 Jan - 02:49:40 10° W 03:04:49 71° N 03:25:07 10° ENE visible
20 Jan - 05:05:16 10° WNW 05:24:15 71° N 05:42:53 10° E visible
20 Jan - 07:22:14 10° WNW 07:42:31 80° SSW 07:57:34 10° SE visible
20 Jan - 09:41:41 10° WNW 09:57:02 34° SW 10:07:43 10° SSE daylight
20 Jan - 21:20:57 10° SE 21:21:46 10° SE 21:22:38 10° ESE visible
20 Jan - 23:23:41 10° SW 23:32:48 53° SE 23:48:22 10° ENE night (unlit)
21 Jan - 01:34:58 10° WSW 01:47:39 79° NNW 02:07:25 10° ENE visible
21 Jan - 03:49:19 10° W 04:06:09 67° N 04:26:06 10° E visible
21 Jan - 06:05:22 10° WNW 06:25:22 84° NNE 06:42:44 10° ESE visible
21 Jan - 08:23:02 10° WNW 08:41:52 54° SW 08:55:16 10° SE daylight
21 Jan - 10:47:00 10° W 10:54:45 15° SW 11:01:08 10° SSW daylight
21 Jan - 22:11:52 10° S 22:18:51 30° SE 22:29:44 10° E visible
22 Jan - 00:21:07 10° WSW 00:31:31 84° SSE 00:49:29 10° ENE visible
22 Jan - 02:34:04 10° W 02:48:23 68° N 03:08:32 10° ENE visible
22 Jan - 04:49:09 10° WNW 05:07:33 74° NNE 05:26:47 10° E visible
22 Jan - 07:05:35 10° WNW 07:25:39 74° SSW 07:41:33 10° SE visible
22 Jan - 09:25:11 10° W 09:40:16 31° SW 09:51:25 10° S daylight
22 Jan - 21:02:54 10° SE 21:05:37 12° SE 21:08:45 10° ESE visible
22 Jan - 23:08:07 10° SW 23:16:32 59° SE 23:31:29 10° ENE visible
23 Jan - 01:19:31 10° W 01:31:21 75° NNW 01:50:32 10° ENE visible
23 Jan - 03:33:33 10° WNW 03:49:36 68° N 04:09:44 10° E visible
23 Jan - 05:49:00 10° WNW 06:08:31 89° NNE 06:26:40 10° ESE visible
23 Jan - 08:06:22 10° WNW 08:24:58 49° SW 08:39:05 10° SSE daylight
23 Jan - 10:32:04 10° WSW 10:38:13 13° SW 10:43:35 10° SSW daylight
23 Jan - 21:56:06 10° SSW 22:02:38 33° SE 22:13:15 10° ENE visible
24 Jan - 00:05:43 10° WSW 00:15:20 89° NNW 00:32:29 10° ENE night (unlit)
24 Jan - 02:18:33 10° W 02:32:01 66° N 02:51:53 10° ENE visible
24 Jan - 04:33:06 10° WNW 04:50:50 76° NNE 05:10:33 10° ESE visible
24 Jan - 06:49:03 10° WNW 07:08:42 69° SSW 07:25:23 10° SE visible
24 Jan - 09:08:55 10° W 09:23:27 27° SW 09:34:52 10° S daylight
24 Jan - 20:46:13 10° SSE 20:49:31 14° SE 20:53:36 10° E visible
24 Jan - 22:52:39 10° SW 23:00:25 66° SSE 23:14:35 10° ENE visible
25 Jan - 01:04:09 10° W 01:15:11 70° N 01:33:39 10° ENE visible
25 Jan - 03:17:50 10° WNW 03:33:05 68° N 03:53:18 10° E visible
25 Jan - 05:32:42 10° WNW 05:51:36 86° SSW 06:10:25 10° ESE visible
25 Jan - 07:49:52 10° WNW 08:07:59 44° SW 08:22:42 10° SSE daylight
25 Jan - 10:18:37 10° WSW 10:21:40 11° SW 10:24:32 10° SW daylight
25 Jan - 21:40:28 10° SSW 21:46:34 37° SE 21:56:45 10° ENE visible
25 Jan - 23:50:24 10° WSW 23:59:18 82° NNW 00:15:30 10° ENE night (unlit)
26 Jan - 02:03:05 10° W 02:15:45 65° N 02:35:11 10° E visible
26 Jan - 04:17:08 10° WNW 04:34:05 80° NNE 04:54:11 10° ESE visible
26 Jan - 06:32:37 10° WNW 06:51:41 63° SW 07:09:01 10° SE visible
26 Jan - 08:52:52 10° W 09:06:37 24° SW 09:18:02 10° S daylight
26 Jan - 20:29:57 10° SSE 20:33:30 16° SE 20:38:06 10° E visible
26 Jan - 22:37:17 10° SW 22:44:27 74° SSE 22:57:44 10° ENE visible
